Miscellaneous Local Product
Issued by NWS North Platte, NE

Home | Current Version | Previous Version | Text Only | Print | Product List | Glossary On
Versions: 1 2 3 4 5 6 7 8 9 10 11 12 13 14 15 16 17 18 19 20 21 22 23 24 25 26 27 28 29 30 31 32 33 34 35 36 37 38 39 40 41 42 43 44 45 46 47 48 49 50
000
AXUS43 KLBF 212310
MISLBF


WESTERN AND NORTH CENTRAL NEBRASKA HOURLY WEATHER ROUNDUP
NATIONAL WEATHER SERVICE NORTH PLATTE NE
600 PM CDT MON APR 21 2014

***STATIONS NOT REPORTING VARIABLES SUCH AS SKY/WEATHER OR
PRESSURE ARE PROVIDED BY THE NEBRASKA DEPARTMENT OF
ROADS...RAWS...AND APRS NETWORKS...AND ARE NOT UNDER
NATIONAL WEATHER SERVICE QUALITY CONTROL***

...OBSERVATIONS IN AND NEAR THE EASTERN PANHANDLE OF NEBRASKA...

CITY           SKY/WX    TMP DP  RH WIND       PRES   REMARKS
PINE RIDGE     SUNNY     68  23  18 CALM      30.16F
CHADRON        PTSUNNY   68  30  24 E12       30.13F
ALLIANCE       SUNNY     67  24  19 E6        30.15F
SIDNEY         MOSUNNY   67  26  21 S6        30.18F
WHITECLAY        N/A     67  25  20 CALM        N/A
CRESCENT LAKE    N/A     71  23  16 S5          N/A
LISCO            N/A     72  13  10 E9          N/A
BIG SPRINGS      N/A     71  26  18 E3          N/A
LEWELLEN         N/A     77  14   9 E6          N/A
$$

...OBSERVATIONS IN SOUTHWEST NEBRASKA AND FAR NORTHEAST COLORADO...

CITY           SKY/WX    TMP DP  RH WIND       PRES   REMARKS
WRAY           FAIR      72  25  17 SE7       30.17F
HOLYOKE        FAIR      73  28  19 E3        30.16F
IMPERIAL       SUNNY     72  22  15 NW5       30.15F
OGALLALA       SUNNY     70  20  14 E7        30.15F
NORTH PLATTE   SUNNY     70  25  18 N9G18     30.14F
MCCOOK         SUNNY     73  27  18 NE13G18   30.13F
LEXINGTON      SUNNY     70  25  18 NE13      30.14S
PAXTON           N/A     71  27  19 N3          N/A
SUTHERLAND       N/A     74  17  11 NE5         N/A
MEDICINE CREEK   N/A     71  36  28 E9          N/A
GOTHENBURG       N/A     71  27  19 NE3G12      N/A
CALLAWAY         N/A     69  29  22 NE12        N/A
$$

...OBSERVATIONS IN NORTH CENTRAL NEBRASKA...

CITY           SKY/WX    TMP DP  RH WIND       PRES   REMARKS
VALENTINE      SUNNY     68  24  19 N12       30.15F
THEDFORD       SUNNY     70  19  14 NW5       30.16F
AINSWORTH      SUNNY     67  26  20 N8G17     30.15F
O`NEILL        MOSUNNY   68  19  15 N17G25    30.14S
ORD            SUNNY     71  24  17 N13G23    30.12S
BROKEN BOW     SUNNY     69  24  18 N13       30.13F
BROWNLEE         N/A     71  24  17 W10         N/A
SPRINGVIEW       N/A     69  30  23 W6G15       N/A
DUNNING          N/A     69  21  16 NE13        N/A
BREWSTER         N/A     71  25  18 NE16        N/A
ROSE             N/A     70  30  23 S10         N/A
NEWPORT          N/A     69  22  17 W9          N/A
COMSTOCK         N/A     75  25  15 N14         N/A
CHAMBERS         N/A     69  -9   4 N9G18       N/A
EWING            N/A     70  26  19 N7G17       N/A
$$

...SOME WEATHER OBSERVATIONS FROM AROUND THE REGION...

CITY           SKY/WX    TMP DP  RH WIND       PRES   REMARKS
DENVER         PTSUNNY   67  34  29 SE16      30.17F
LARAMIE        CLOUDY    60  30  32 SE15      30.19F
CHEYENNE       MOSUNNY   61  31  32 S20       30.19F
SCOTTSBLUFF    SUNNY     69  30  23 S13       30.14F
RAPID CITY     SUNNY     67  27  22 SE10      30.13F
PIERRE         SUNNY     67  29  24 VRB7      30.12F
WINNER         FAIR      69  27  20 N12G17    30.14F
SIOUX FALLS    SUNNY     63  35  35 N21G28    30.09R
OMAHA          MOSUNNY   74  22  14 N24G31    30.01S
GRAND ISLAND   SUNNY     72  24  16 N18       30.12R
KANSAS CITY    PTSUNNY   73  56  54 N10       29.94F
WICHITA        MOSUNNY   81  47  30 N17G25    29.98S
HAYS           SUNNY     73  36  25 N21       30.11S
LIBERAL        MOSUNNY   75  48  38 N12       30.13S
GOODLAND       SUNNY     69  27  20 SE5       30.17F
$$



USA.gov is the U.S. government's official web portal to all federal, state and local government web resources and services.